Regional Weather Roundup
Issued by NWS

Home | Current Version | Previous Version | Text Only | Print | Product List | Glossary On
Versions: 1 2 3 4 5 6 7 8 9 10 11 12 13 14 15 16 17 18 19 20 21 22 23 24 25 26 27 28 29 30 31 32 33 34 35 36 37 38 39 40 41 42 43 44 45 46 47 48 49 50
000
ASUS43 KDMX 251803
RWRIA

WEATHER ROUNDUP FOR IOWA
NATIONAL WEATHER SERVICE DES MOINES IA
100 PM CDT WED MAY 25 2016

NOTE: "FAIR" INDICATES FEW OR NO CLOUDS BELOW 12,000 FEET WITH NO
SIGNIFICANT WEATHER AND/OR OBSTRUCTIONS TO VISIBILITY.

* - THESE STATIONS ARE NOT NWS STATIONS...THUS NOT UNDER NWS
QUALITY CONTROL.  THEY ALSO DO NOT REPORT WEATHER SUCH
AS PRECIPITATION OR FOG.

IAZ001>003-012>014-020>022-031>034-043>046-251900-
   NORTHWEST IOWA

CITY           SKY/WX    TMP DP  RH WIND       PRES   REMARKS
CARROLL *      MOSUNNY   73  64  73 SW15      29.85S
CHEROKEE *     CLOUDY    74  65  73 SW14      29.84F
DENISON *      SUNNY     75  61  60 SW13      29.84R
LE MARS *      MOSUNNY   75  63  64 SW15      29.84S
ORANGE CITY *  SUNNY     73  63  68 S13G20    29.84S
SHELDON *      MOSUNNY   75  61  60 S17       29.82F
SIOUX CITY     MOSUNNY   77  62  59 S13       29.83S
6HR MIN TEMP:  64; 6HR MAX TEMP:  77; 6HR PCP: TRACE;

SPENCER        PTSUNNY   77  59  53 SW16      29.84S
6HR MIN TEMP:  65; 6HR MAX TEMP:  77; 6HR PCP:  0.01;

STORM LAKE *     N/A     73  61  64 SW17G24   29.86F
$$

IAZ055>058-069>071-079>083-090>094-251900-
   SOUTHWEST IOWA

CITY           SKY/WX    TMP DP  RH WIND       PRES   REMARKS
ATLANTIC *     CLOUDY    72  61  68 VRB5G14   29.84S
AUDUBON *        N/A     73  64  73 S10       29.87R
CLARINDA *       N/A     75  66  73 MISG      29.86R
COUNCIL BLFS * SUNNY     72  63  73 S8        29.84R
CRESTON *      CLOUDY    66  63  88 SE18      29.82F
HARLAN  *      PTSUNNY   72  61  68 SW9       29.88S
LAMONI         CLOUDY    73  61  65 S9        29.87F
6HR MIN TEMP:  64; 6HR MAX TEMP:  74; 6HR PCP: TRACE;

RED OAK *      PTSUNNY   73  63  68 SW7       29.85R
SHENANDOAH *   MOSUNNY   73  64  73 VRB5G12   29.85F
$$

IAZ047>049-059>061-072>074-084-251900-
   CENTRAL IOWA

CITY           SKY/WX    TMP DP  RH WIND       PRES   REMARKS
AMES           CLOUDY    73  65  75 S12       29.87R
6HR MIN TEMP:  65; 6HR MAX TEMP:  75; 6HR PCP:  0.10;

ANKENY *       CLOUDY    73  68  83 S15G21    29.87F
BOONE *        CLOUDY    73  66  78 S8        29.86S
CHARITON *     PTSUNNY   73  61  64 SW12      29.90F
DES MOINES     CLOUDY    74  63  68 S16       29.87S
6HR MIN TEMP:  66; 6HR MAX TEMP:  75; 6HR PCP:  0.01;

GRINNELL*      PTSUNNY   71  65  83 S7        29.89F
KNOXVILLE *    CLOUDY    73  64  73 S12G18    29.89R
MARSHALLTOWN   CLOUDY    71  66  84 S12       29.87S
6HR MIN TEMP:  64; 6HR MAX TEMP:  72; 6HR PCP:  0.04;

NEWTON *       CLOUDY    73  70  88 S15       29.88F
PELLA *        PTSUNNY   73  64  72 SW10      29.91S
PERRY *          N/A     75  66  73 S14       29.86S
$$

IAZ004>006-015-016-023>025-035-036-251900-
   NORTH CENTRAL IOWA

CITY           SKY/WX    TMP DP  RH WIND       PRES   REMARKS
ALGONA *       PTSUNNY   73  63  68 S20G26    29.85R
CLARION *      PTSUNNY   73  68  83 S14G22    29.84F
ESTHERVILLE    MOSUNNY   75  63  66 S16       29.83R
6HR MIN TEMP:  63; 6HR MAX TEMP:  76; 6HR PCP:  0.10;

FORT DODGE *   CLOUDY    72  63  73 S10       29.86S
MASON CITY     CLOUDY    69  65  86 S16       29.86F
6HR MIN TEMP:  63; 6HR MAX TEMP:  69; 6HR PCP:  0.38;

FOREST CITY *  PTSUNNY   68  64  88 S7        29.85F
WEBSTER CITY * MOSUNNY   73  66  78 S16       29.82F
IOWA FALLS *   CLOUDY    71  66  82 S13       29.87F
$$

IAZ007>011-017>019-026>030-037>042-050>054-066-251900-
   NORTHEAST IOWA

CITY           SKY/WX    TMP DP  RH WIND       PRES   REMARKS
CEDAR RAPIDS   PTSUNNY   76  67  73 S10       29.88F
6HR MIN TEMP:  64; 6HR MAX TEMP:  76; 6HR PCP: TRACE;

CHARLES CITY * CLOUDY    68  68 100 S16       29.87F
CLINTON *      CLOUDY    82  62  50 S16       29.91F HX  83
DECORAH *      CLOUDY    66  66 100 VRB7      29.88F FOG
DUBUQUE        CLOUDY    79  63  57 S18G24    29.91F HX  80
6HR MIN TEMP:  65; 6HR MAX TEMP:  79;

MONTICELLO *   CLOUDY    82  63  51 S17G28    29.89F HX  83
OELWEIN *      CLOUDY    73  68  83 S20G25    29.89S
WATERLOO       CLOUDY    68  64  87 S10       29.88S
6HR MIN TEMP:  64; 6HR MAX TEMP:  71; 6HR PCP:  0.06;

$$

IAZ064-065-067-068-078-251900-
   EAST CENTRAL IOWA

CITY           SKY/WX    TMP DP  RH WIND       PRES   REMARKS
DAVENPORT      PTSUNNY   83  63  50 S18       29.92S HX  84
6HR MIN TEMP:  67; 6HR MAX TEMP:  85;

IOWA CITY      CLOUDY    79  65  62 SW15G22   29.91F HX  81
6HR MIN TEMP:  65; 6HR MAX TEMP:  79; 6HR PCP:  0.01;

MT. PLEASANT * CLOUDY    81  64  57 S12G17    29.92F HX  82
MUSCATINE *    CLOUDY    79  66  65 S17       29.91F HX  81
QUAD CITIES    CLOUDY    84  65  52 S13       29.91F HX  86
6HR MIN TEMP:  68; 6HR MAX TEMP:  85;

$$

IAZ062-063-075>077-085>089-095>099-251900-
   SOUTHEAST IOWA

CITY           SKY/WX    TMP DP  RH WIND       PRES   REMARKS
BURLINGTON     CLOUDY    77  67  71 S8        29.93F
6HR MIN TEMP:  63; 6HR MAX TEMP:  79; 6HR PCP:  0.04;

FAIRFIELD *      N/A    N/A N/A N/A MISG        N/A
FORT MADISON * CLOUDY    77  66  69 S10G17    29.94F
KEOKUK *       CLOUDY    75  66  73 SW6       29.92F
OSKALOOSA *      N/A     77  61  57 S9        29.89F
OTTUMWA        CLOUDY    77  63  61 S14       29.88F
6HR MIN TEMP:  64; 6HR MAX TEMP:  77;

WASHINGTON *   SUNNY     81  73  78 S13G22    29.91F HX  85
$$

ABBREVIATIONS USED IN REMARKS
   TC - TEMPERATURES IN CELSIUS
  WCI - WIND CHILL INDEX
   HX - HEAT INDEX
  VSB - VISIBILITY
$$





USA.gov is the U.S. government's official web portal to all federal, state and local government web resources and services.